Wind_Speed
17 18 17 17 17 18 19 21 22 21 20 20 20 20 17 17 19 18 17 17 16 16 16 15 16 18 20 21 20 22 25 24 23 24 25 26 28 28 29 29 28 26
16 17 16 17 17 18 20 21 21 22 23 23 21 21 19 18 18 18 18 19 18 18 18 17 17 18 20 21 19 20 23 23 23 23 23 25 28 29 29 29 29 28
17 18 17 17 18 19 20 20 20 21 23 24 23 22 21 19 19 20 20 19 19 18 19 19 18 18 19 20 21 22 24 23 24 24 23 25 28 29 29 29 28 28
19 19 18 18 19 20 21 20 20 20 22 23 24 23 23 21 21 21 20 20 22 21 20 20 19 19 20 20 21 24 25 25 25 24 23 26 27 27 28 28 28 28
22 21 19 20 20 21 21 20 20 21 22 22 24 24 24 23 23 23 22 22 24 24 22 22 21 19 19 20 20 22 24 24 23 23 24 27 28 27 27 27 27 27
22 21 20 21 21 21 20 20 21 21 22 22 23 23 23 23 24 25 26 25 24 25 25 25 24 22 21 21 20 20 21 21 21 22 23 25 27 28 27 26 26 27
20 21 21 22 22 21 21 21 21 21 21 21 22 23 23 23 23 24 26 27 26 27 25 24 24 26 24 21 20 19 19 20 22 24 24 24 25 27 26 25 25 26
20 20 21 22 23 22 22 23 22 22 22 22 22 22 22 23 23 24 25 26 27 27 26 23 23 25 24 21 20 20 20 22 23 23 23 23 24 25 25 25 25 26
21 22 22 23 23 22 23 24 23 23 22 22 22 22 22 22 22 24 24 25 27 26 25 25 23 23 23 22 21 21 21 23 23 24 24 23 24 25 26 26 26 24
23 23 23 24 24 23 24 24 24 23 23 23 23 23 23 23 22 22 24 25 27 26 26 25 24 25 25 23 22 21 22 23 23 25 25 24 24 25 27 26 26 26
23 23 24 24 24 24 25 25 24 24 24 23 23 24 24 23 23 23 23 24 27 29 29 28 25 26 27 25 24 23 23 24 24 24 25 24 24 25 26 26 25 26
23 23 24 24 25 25 25 25 25 25 25 24 24 24 24 24 24 24 23 24 26 29 29 29 28 26 25 26 26 25 24 23 23 23 24 25 25 23 25 27 27 27
22 23 23 24 25 25 25 26 26 26 26 25 24 24 25 25 25 25 25 25 26 28 28 28 28 25 24 27 29 28 26 23 22 22 22 23 24 24 24 26 27 28
22 22 23 24 24 25 25 26 26 27 26 26 25 25 25 26 26 27 26 26 27 29 30 29 26 23 27 33 34 32 30 26 22 22 22 22 23 23 24 26 26 27
22 22 23 24 24 25 26 26 27 27 27 26 26 26 25 26 26 27 27 27 28 29 30 30 27 25 32 38 37 35 32 29 25 21 21 23 23 21 22 24 24 25
21 22 23 24 25 25 26 26 26 27 28 27 26 27 26 26 27 27 28 28 29 29 30 29 26 28 35 39 37 35 33 30 26 23 21 22 22 22 23 25 25 24
21 22 23 23 24 25 25 26 26 27 27 27 27 27 28 27 27 28 28 28 28 29 30 29 27 31 40 42 38 34 32 30 27 24 21 20 21 22 22 24 24 24
21 21 22 23 24 24 25 25 25 26 27 27 27 27 28 28 28 29 28 28 29 29 30 30 28 33 43 45 40 35 31 28 26 24 22 20 21 21 21 21 21 21
21 21 22 23 23 24 24 25 25 26 27 27 27 27 28 28 29 29 28 29 30 30 31 30 29 37 47 47 41 36 32 27 25 24 23 22 20 19 21 24 23 20
21 22 22 23 23 24 24 25 25 26 26 27 26 27 28 28 29 29 29 30 30 30 32 31 30 40 51 48 42 38 33 28 24 22 22 23 21 18 19 23 23 20
22 22 22 23 23 24 24 25 25 25 25 26 25 26 27 27 28 27 27 30 32 31 32 31 31 41 52 50 44 41 34 29 25 21 20 21 21 20 19 21 20 19
22 22 22 23 24 24 24 24 25 25 25 25 24 24 26 26 27 27 26 29 32 33 34 33 33 42 51 51 47 43 36 31 27 24 21 20 20 19 19 21 20 19
22 22 23 23 24 25 24 24 25 25 26 26 24 23 25 26 27 27 26 28 30 33 35 34 35 43 50 51 50 45 38 33 29 25 22 21 19 19 19 20 20 21
21 21 22 22 23 25 24 24 24 25 26 26 24 23 24 26 26 25 25 27 29 30 33 33 35 42 48 51 51 48 41 36 31 26 24 22 15 11 10 13 16 19
20 21 21 22 23 24 24 24 24 24 25 26 25 24 23 24 25 25 24 27 28 29 32 33 34 40 46 49 51 51 46 40 35 31 28 26 21 16 11 5 5 10
19 20 21 22 23 24 24 24 24 24 25 25 24 24 24 24 25 25 24 25 26 28 31 34 34 38 44 47 48 50 49 44 40 36 30 28 26 24 23 19 14 7
Wind_Direction
358 353 350 346 341 341 341 340 340 338 333 327 321 317 313 315 316 311 302 294 287 283 281 279 275 273 271 269 262 246 236 234 230 223 222 223 221 220 221 223 222 224
5 357 352 349 343 341 341 339 338 336 335 335 332 326 321 320 320 317 309 300 296 292 286 282 276 272 271 268 260 245 235 232 229 224 221 222 223 223 222 221 221 222
8 2 358 355 349 345 343 340 338 335 334 334 335 334 331 325 321 320 316 308 305 301 293 288 283 277 276 271 261 249 240 234 233 231 227 224 224 224 223 220 219 220
7 7 3 360 354 349 345 342 341 339 336 334 333 334 334 331 327 324 319 313 310 307 299 292 285 282 282 275 265 257 250 245 244 242 237 230 225 225 224 221 221 223
6 7 4 1 356 352 349 346 344 342 339 336 334 334 334 333 332 329 325 319 313 309 301 292 287 285 280 273 269 264 257 251 248 245 239 233 228 226 224 220 222 225
4 4 3 1 356 356 354 349 346 345 342 339 338 339 337 334 331 330 330 327 321 316 309 301 300 298 287 279 277 268 258 254 249 244 240 234 232 230 227 223 224 226
6 3 2 360 357 359 357 352 349 348 346 344 342 341 340 338 334 331 331 330 327 324 316 308 306 305 300 294 285 271 260 254 248 246 244 239 235 232 230 229 228 229
7 5 3 1 359 359 358 356 354 352 350 348 346 344 343 341 338 335 334 334 332 327 320 316 313 307 303 299 291 282 272 262 252 247 244 239 237 233 229 228 228 229
7 6 5 3 2 360 359 359 357 355 353 351 349 348 345 343 341 339 338 337 337 335 328 325 320 310 301 296 294 290 281 270 258 250 246 241 239 237 233 229 227 227
10 8 5 5 3 0 0 0 359 358 356 354 352 351 349 346 344 343 341 339 339 340 337 333 326 317 310 303 298 292 282 272 261 256 256 250 242 237 236 234 230 229
11 8 5 4 2 2 2 1 1 2 360 358 356 354 352 350 348 346 344 342 340 338 339 338 335 328 321 314 305 295 285 277 267 261 258 253 247 240 236 234 231 230
10 8 6 4 2 3 4 2 3 4 3 1 359 357 356 353 352 349 347 345 343 342 341 340 340 339 334 330 323 310 297 286 274 267 262 257 253 246 239 236 234 233
10 7 5 5 3 4 4 4 5 5 5 3 1 0 359 356 355 351 349 347 344 345 346 344 345 349 349 348 346 338 324 307 289 277 271 266 260 251 241 236 235 234
9 7 6 7 5 5 6 6 6 6 6 5 4 3 1 359 357 353 351 350 347 347 348 350 353 352 348 348 349 345 339 330 312 291 278 273 267 257 242 234 235 238
10 7 7 7 5 6 8 7 6 6 6 6 5 4 3 360 359 357 354 352 350 348 348 352 355 351 345 347 348 346 342 337 326 309 290 278 270 262 250 242 241 243
10 8 8 7 6 6 7 6 6 6 5 6 5 5 4 2 360 358 357 355 352 351 350 350 353 350 346 346 347 347 344 337 330 319 302 284 270 262 256 248 242 238
11 10 9 8 8 6 6 6 6 5 6 5 4 5 4 3 2 360 359 357 354 353 352 350 351 350 348 347 346 345 343 338 331 323 309 291 275 264 254 246 242 240
14 12 10 9 8 7 7 7 7 6 6 4 4 5 4 3 3 1 1 360 357 356 354 353 352 349 348 349 348 345 342 337 331 324 315 298 282 270 258 249 244 240
16 14 12 10 9 8 8 9 9 9 9 5 3 3 5 5 3 1 2 1 360 359 356 354 353 350 350 351 349 346 343 337 330 323 316 307 293 278 264 256 250 238
19 17 14 11 10 10 10 10 10 11 11 8 5 4 5 5 2 1 3 2 0 359 357 356 355 354 355 356 353 348 344 338 332 324 316 310 303 292 273 259 248 231
19 18 15 12 12 13 13 12 11 12 12 10 9 7 5 4 2 0 3 5 3 1 359 359 357 357 359 1 357 352 347 342 338 332 323 313 304 298 284 265 247 231
19 16 15 14 13 13 15 15 12 11 11 9 9 11 10 7 4 1 2 5 6 6 4 3 1 -0 2 5 3 357 352 350 348 341 330 318 305 298 288 273 257 241
19 15 14 14 13 13 15 18 16 12 9 7 8 13 15 12 6 2 3 5 6 8 8 7 6 5 7 8 8 6 2 359 355 346 336 328 313 299 288 273 255 236
23 19 15 14 14 12 13 17 18 15 11 7 6 12 16 15 9 5 6 7 8 10 10 9 8 9 11 12 13 13 13 10 5 359 356 354 342 316 285 259 238 225
26 22 17 16 16 14 15 17 17 16 15 11 9 10 14 15 12 9 10 11 11 13 14 12 10 10 14 16 17 18 20 19 17 14 10 10 12 13 6 339 249 220
28 26 22 21 19 16 17 18 16 14 15 15 12 10 11 14 14 12 13 12 11 12 13 12 11 12 16 19 20 21 23 24 24 21 16 14 16 17 15 13 9 360
Height
810 809 808 807 806 806 805 804 802 801 799 798 796 795 794 793 792 792 792 792 790 789 788 788 788 788 788 788 787 787 788 789 789 790 791 791 792 793 794 795 796 797
810 810 809 807 807 806 805 804 803 801 800 798 797 795 794 793 792 791 791 790 790 789 787 787 787 787 787 787 787 787 787 787 787 788 789 789 790 791 792 793 794 795
810 809 808 808 807 806 805 804 803 802 800 798 797 795 794 793 792 791 790 789 788 788 787 786 786 787 787 787 787 786 786 785 785 785 786 787 788 789 790 791 792 793
810 809 809 808 808 807 806 805 804 802 801 799 797 795 794 792 792 791 790 789 787 786 785 784 784 784 786 787 787 785 784 784 784 784 784 785 786 787 788 789 790 791
811 811 810 809 808 807 806 805 804 803 801 800 797 795 794 792 791 790 790 789 787 786 784 782 782 782 783 784 785 784 783 783 783 783 782 783 784 785 785 786 787 788
813 812 811 810 809 808 807 806 805 804 802 800 798 796 794 792 791 790 789 788 787 786 784 782 782 782 782 782 782 782 781 781 781 781 781 780 781 782 783 784 784 785
815 814 813 812 810 810 809 807 806 804 803 801 799 797 795 793 791 789 788 787 786 785 784 783 782 782 782 781 781 780 779 778 778 779 779 779 779 779 780 781 782 783
816 815 813 813 812 811 810 808 807 805 803 801 799 798 796 794 792 789 788 787 786 784 782 782 781 781 781 780 779 779 777 776 775 775 775 777 777 778 778 779 780 781
817 815 815 814 813 812 811 809 807 805 804 802 800 798 797 795 793 790 788 787 785 784 782 781 781 780 779 778 777 776 776 774 772 771 771 773 775 776 777 778 778 779
818 817 816 815 814 813 812 810 808 806 804 802 801 799 797 796 794 791 789 787 785 784 783 781 780 778 777 776 775 773 773 772 770 768 767 769 771 773 774 775 776 776
819 819 818 817 816 814 813 811 809 807 805 803 802 800 798 796 794 792 790 788 786 784 783 781 779 777 775 775 773 772 770 769 768 766 765 765 767 768 769 771 772 773
821 821 820 818 817 815 814 812 810 808 806 805 803 801 799 797 796 793 791 789 786 784 782 780 778 776 775 774 773 771 770 768 766 765 763 763 764 764 766 767 768 770
823 823 821 820 818 817 815 813 811 810 808 806 804 802 800 798 796 794 792 790 787 784 782 780 778 777 775 773 772 770 769 767 765 764 762 761 761 761 762 763 765 767
826 825 823 821 820 818 816 814 813 811 809 808 806 804 802 800 798 795 793 790 788 785 782 780 779 777 774 772 771 769 767 765 763 761 760 759 759 759 759 760 761 763
828 826 824 823 821 819 818 816 814 813 811 809 807 806 804 802 800 797 794 791 788 785 783 780 779 778 775 774 772 769 766 764 761 759 758 757 757 757 758 758 758 759
829 828 826 824 822 820 819 817 816 814 812 811 809 808 806 804 802 799 796 793 790 786 784 781 780 779 776 774 772 769 766 763 760 758 756 755 755 755 756 756 756 756
831 829 827 826 824 823 821 819 818 816 814 813 811 809 808 806 804 801 798 796 792 789 787 784 782 780 776 772 770 768 765 762 759 757 755 753 753 753 753 753 754 754
832 831 829 828 826 825 823 822 820 818 817 815 813 811 810 808 806 804 801 798 795 792 790 786 784 781 777 772 768 765 763 760 757 755 753 751 751 751 751 751 751 752
833 832 831 830 828 826 825 823 822 820 819 817 815 813 812 810 808 806 804 801 798 795 792 789 786 783 777 771 766 763 760 757 754 752 751 749 749 749 750 748 748 749
835 833 832 831 829 828 826 824 823 822 820 819 817 815 814 812 810 808 805 803 801 798 795 792 789 784 778 771 765 761 757 754 751 749 747 746 746 746 747 745 746 747
836 835 834 832 830 829 827 826 825 823 822 820 819 817 816 814 812 810 807 805 803 800 797 794 790 786 779 771 765 760 755 752 748 746 744 743 743 743 743 742 743 744
838 836 835 833 831 830 828 827 826 825 823 822 820 819 818 816 814 812 809 807 804 801 799 795 792 787 780 773 766 759 754 750 747 744 742 741 740 740 740 740 740 741
839 838 836 835 833 831 829 828 827 826 825 824 822 820 819 817 816 813 811 809 806 803 800 797 794 789 783 776 768 761 755 750 747 744 742 740 738 737 736 736 737 738
841 840 838 837 835 833 832 830 829 828 827 825 824 822 820 819 817 815 813 811 808 806 803 800 796 792 786 779 772 764 758 753 750 746 743 740 738 736 735 735 734 735
842 841 840 838 837 835 834 832 831 830 829 828 826 824 822 821 819 817 815 813 811 808 805 802 798 794 789 783 777 770 763 758 754 750 746 743 741 739 738 736 735 733
843 842 841 840 839 837 836 835 833 832 831 829 828 826 824 823 821 819 817 815 813 810 807 803 800 796 792 787 782 776 770 764 759 756 753 750 747 743 741 739 738 735